[[[{"header":{"parameterUnit":"kt","parameterCategory":2,"dx":1,"dy":1,"la1":30.253999710083008,"la2":30.299108505249023,"lo1":-89.0895004272461,"lo2":-89.04439544677734,"nx":28,"ny":28,"refTime":"2022-11-01T21:00:00:Z","depth":0,"parameterNumber":1,"parameterNumberName":"U-component_of_WINDS"},"data":[-3.0087,-3.0086,-3.0042,-3.0023,-2.998,-2.996,-2.9939,-2.9907,-2.9871,-2.9844,-2.9821,-2.9777,-2.9725,-2.9688,-2.9662,-2.9643,-2.9637,-2.9672,-2.9644,-2.9528,-2.9509,-2.9491,-2.9489,-2.967,-2.967,-2.9772,-2.9773,-2.9774,-3.0017,-2.9974,-2.9949,-2.9895,-2.9874,-2.9816,-2.9768,-2.9756,-2.9739,-2.9693,-2.9666,-2.9638,-2.9611,-2.9544,-2.9511,-2.9513,-2.9484,-2.9507,-2.9508,-2.9501,-2.9375,-2.9373,-2.9532,-2.9532,-2.9532,-2.9532,-2.9532,-2.9532,-2.9877,-2.9877,-2.9817,-2.9788,-2.9748,-2.9713,-2.9706,-2.9649,-2.9625,-2.9581,-2.9531,-2.9512,-2.9457,-2.9392,-2.9359,-2.9345,-2.931,-2.9322,-2.9326,-2.9331,-2.9345,-2.9213,-2.9336,-2.9335,-2.9335,-2.9334,-2.9334,0,-2.9761,-2.9723,-2.9693,-2.9652,-2.9628,-2.9591,-2.9549,-2.9543,-2.9445,-2.9429,-2.9402,-2.9378,-2.9333,-2.9304,-2.926,-2.9221,-2.9159,-2.9146,-2.9155,-2.9181,-2.9213,-2.9201,-2.9001,-2.9142,-2.9141,-2.9139,-2.9138,-2.9138,-2.962,-2.9622,-2.9534,-2.9521,-2.9485,-2.9462,-2.944,-2.9352,-2.9333,-2.9269,-2.9273,-2.9241,-2.921,-2.9174,-2.9107,-2.9073,-2.9043,-2.9103,-2.9037,-2.9064,-2.9049,-2.9051,-2.9053,-2.9118,-2.9121,-2.9123,-2.9124,0,-2.9546,-2.9467,-2.9456,-2.9367,-2.9345,-2.9353,-2.9278,-2.9273,-2.9216,-2.9204,-2.9195,-2.9107,-2.9081,-2.9003,-2.8956,-2.8917,-2.8938,-2.8907,-2.8959,-2.8949,-2.8999,-2.8997,-2.9161,-2.918,-2.8987,-2.8989,-2.8991,0,-2.9396,-2.9402,-2.9285,-2.9282,-2.9288,-2.9197,-2.9205,-2.9156,-2.9103,-2.9091,-2.9005,-2.8996,-2.8895,-2.8877,-2.8818,-2.882,-2.8809,-2.8781,-2.8765,-2.879,-2.8794,-2.878,-2.8773,-2.8724,-2.8724,-2.8723,-2.8722,0,-2.929,-2.9231,-2.9226,-2.92,-2.9102,-2.9103,-2.9063,-2.9,-2.8978,-2.8936,-2.8921,-2.8879,-2.8857,-2.8828,-2.8752,-2.8711,-2.8751,-2.8679,-2.8722,-2.8724,-2.8735,-2.8736,-2.89,-2.8721,-2.8721,-2.8721,-2.8721,0,-2.9156,-2.9112,-2.9114,-2.9032,-2.902,-2.9015,-2.8967,-2.8944,-2.8885,-2.8846,-2.8812,-2.8743,-2.8734,-2.8669,-2.8657,-2.8626,-2.8611,-2.858,-2.8581,-2.8577,-2.8508,-2.8615,-2.8776,-2.8792,-2.8574,-2.8573,-2.8572,0,-2.906,-2.9038,-2.8957,-2.896,-2.8939,-2.8842,-2.8836,-2.8783,-2.873,-2.8706,-2.8648,-2.862,-2.8554,-2.8534,-2.8538,-2.8478,-2.8518,-2.8469,-2.8443,-2.8443,-2.8465,-2.8611,-2.8657,-2.8749,-2.8555,-2.8557,-2.8558,0,-2.8974,-2.885,-2.8856,-2.8822,-2.8734,-2.8714,-2.8707,-2.8657,-2.8646,-2.8594,-2.8587,-2.8544,-2.8494,-2.8461,-2.8399,-2.8408,-2.8488,-2.8352,-2.8349,-2.8383,-2.8537,-2.8581,-2.8597,-2.8446,-2.8448,-2.8449,-2.8544,0,-2.8798,-2.8773,-2.8783,-2.8707,-2.8678,-2.8672,-2.8582,-2.8564,-2.8507,-2.8449,-2.8435,-2.8367,-2.8317,-2.831,-2.8253,-2.8296,-2.8277,-2.8222,-2.8153,-2.8249,-2.8278,-2.829,-2.8118,-2.8115,-2.8113,-2.8111,0,0,-2.8727,-2.8688,-2.8595,-2.8581,-2.8551,-2.8446,-2.8449,-2.8407,-2.8325,-2.8308,-2.8268,-2.8198,-2.8143,-2.8136,-2.8158,-2.8136,-2.8137,-2.8105,-2.8203,-2.8214,-2.8223,-2.8257,-2.827,-2.8107,-2.8106,-2.8106,-2.8105,0,-2.8643,-2.8585,-2.8587,-2.8539,-2.8464,-2.84,-2.8401,-2.8308,-2.8271,-2.8252,-2.8167,-2.8147,-2.8089,-2.8045,-2.8015,-2.8104,-2.8041,-2.8094,-2.8174,-2.8184,-2.8198,-2.821,-2.8245,-2.8259,-2.81,-2.81,-2.81,0,-2.8544,-2.8474,-2.8464,-2.8385,-2.8334,-2.8312,-2.8218,-2.8197,-2.818,-2.8065,-2.8048,-2.7998,-2.7929,-2.793,-2.7927,-2.7891,-2.796,-2.7919,-2.793,-2.7928,-2.7934,-2.795,-2.7965,-2.7774,-2.7773,-2.7772,0,0,-2.8485,-2.8458,-2.8353,-2.8359,-2.8334,-2.8237,-2.8215,-2.8154,-2.8092,-2.8068,-2.8001,-2.7945,-2.7911,-2.7891,-2.7853,-2.7867,-2.7847,-2.7883,-2.7898,-2.7911,-2.7916,-2.7926,-2.7942,-2.777,-2.7769,-2.7769,0,0,-2.8455,-2.8333,-2.8285,-2.828,-2.8224,-2.8121,-2.8129,-2.8068,-2.8024,-2.8014,-2.7911,-2.7891,-2.789,-2.7843,-2.7816,-2.7828,-2.7761,-2.7766,-2.7858,-2.7876,-2.7891,-2.7903,-2.7709,0,0,0,0,0,-2.832,-2.8348,-2.8306,-2.8291,-2.8188,-2.8145,-2.8131,-2.8045,-2.8001,-2.8011,-2.7945,-2.7877,-2.7808,-2.7781,-2.7769,-2.78,-2.7733,-2.7739,-2.7745,-2.7867,-2.7887,-2.7904,0,0,0,0,0,0,-2.8314,-2.8296,-2.8305,-2.8204,-2.818,-2.8143,-2.805,-2.8027,-2.7998,-2.7986,-2.7892,-2.7874,-2.7801,-2.7782,-2.7772,-2.7804,-2.7712,-2.7735,-2.7741,-2.7746,-2.7874,-2.789,-2.7904,0,0,0,0,0,-2.8308,-2.8293,-2.8151,-2.8203,-2.8182,-2.8075,-2.8048,-2.8028,-2.8004,-2.7901,-2.7881,-2.7942,-2.7804,-2.779,-2.7775,-2.781,-2.7718,-2.7715,-2.7739,-2.7743,-2.7747,-2.7882,0,0,0,0,0,0,-2.8304,-2.8276,-2.8145,-2.8135,-2.8184,-2.8075,-2.8055,-2.803,-2.7919,-2.79,-2.7946,-2.7937,-2.7806,-2.7795,-2.7785,-2.7818,-2.7723,-2.772,-2.7718,-2.7742,-2.7746,-2.7749,0,0,0,0,0,0,-2.8283,-2.8269,-2.814,-2.8122,-2.8109,-2.8076,-2.8058,-2.8032,-2.792,-2.797,-2.7959,-2.7943,-2.7822,-2.7799,-2.7791,-2.7753,-2.7727,-2.7724,-2.7722,-2.772,-2.7745,-2.7748,0,0,0,0,0,0,-2.8275,-2.8263,-2.8123,-2.8114,-2.8103,-2.7991,-2.8051,-2.7952,-2.7903,-2.7977,-2.7896,-2.7893,-2.7828,-2.7818,-2.7795,-2.7762,-2.7756,-2.7727,-2.7725,-2.7723,-2.7722,0,0,0,0,0,0,0,-2.8269,-2.8372,-2.8201,-2.8108,-2.8098,-2.8048,-2.8046,-2.8043,-2.7902,-2.79,-2.7897,-2.7895,-2.7746,-2.7742,-2.7738,-2.7769,0,0,-2.7727,-2.7726,0,0,0,0,0,0,0,0,-2.8376,-2.8373,-2.82,-2.8198,-2.8197,-2.8048,-2.8046,-2.8044,-2.7902,-2.79,-2.7898,-2.7896,-2.7745,-2.7742,-2.7739,0,0,0,0,0,0,0,0,0,0,0,0,0,0,0,-2.82,-2.8199,0,-2.8048,-2.8046,-2.8044,-2.7902,-2.79,-2.7898,-2.7896,-2.7744,-2.7741,-2.7739,0,0,0,0,0,0,0,0,0,0,0,0,0,0,0,0,0,0,0,0,0,0,0,0,0,0,0,0,0,0,0,0,0,0,0,0,0,0,0,0,0,0,0,0,0,0,0,0,0,0,0,0,0,0,0,0,0,0,0,0,0,0,0,0,0,0,0,0,0]}],[{"header":{"parameterUnit":"kt","parameterCategory":2,"dx":1,"dy":1,"la1":30.253999710083008,"la2":30.299108505249023,"lo1":-89.0895004272461,"lo2":-89.04439544677734,"nx":28,"ny":28,"refTime":"2022-11-01T21:00:00:Z","depth":0,"parameterNumber":2,"parameterNumberName":"V-component_of_WINDS"},"data":[-0.1389,-0.1457,-0.1458,-0.1537,-0.1551,-0.1607,-0.1627,-0.1654,-0.1676,-0.1744,-0.1783,-0.1793,-0.1817,-0.1867,-0.1912,-0.1916,-0.1938,-0.1961,-0.1963,-0.1852,-0.1837,-0.1823,-0.1808,-0.1964,-0.1964,-0.208,-0.2081,-0.2082,-0.1311,-0.1325,-0.1365,-0.1406,-0.1442,-0.142,-0.1451,-0.1484,-0.1535,-0.1561,-0.16,-0.1661,-0.1709,-0.1726,-0.1775,-0.181,-0.1805,-0.1824,-0.1824,-0.183,-0.171,-0.1693,-0.1827,-0.1827,-0.1827,-0.1827,-0.1827,-0.1827,-0.1169,-0.1209,-0.1233,-0.1278,-0.1298,-0.1326,-0.1366,-0.1375,-0.1417,-0.1464,-0.1457,-0.1516,-0.1545,-0.1604,-0.1624,-0.1672,-0.1652,-0.1675,-0.1682,-0.1689,-0.1698,-0.154,-0.1679,-0.1679,-0.1678,-0.1678,-0.1678,0,-0.1066,-0.1064,-0.1103,-0.1142,-0.1175,-0.1206,-0.1235,-0.1259,-0.1256,-0.1291,-0.1342,-0.1372,-0.1432,-0.1483,-0.1528,-0.1545,-0.1531,-0.1527,-0.1544,-0.1552,-0.1553,-0.1559,-0.1369,-0.1525,-0.1524,-0.1523,-0.1522,-0.1521,-0.0929,-0.0973,-0.0999,-0.1026,-0.1042,-0.1086,-0.1113,-0.1106,-0.1136,-0.1172,-0.1209,-0.1257,-0.1297,-0.138,-0.1394,-0.144,-0.1435,-0.1495,-0.1442,-0.1446,-0.1443,-0.1443,-0.145,-0.1507,-0.1509,-0.1511,-0.1512,0,-0.0852,-0.0852,-0.0922,-0.0942,-0.0949,-0.0998,-0.1017,-0.1057,-0.1062,-0.1119,-0.1132,-0.1141,-0.1192,-0.1196,-0.1255,-0.1257,-0.1344,-0.1334,-0.1335,-0.1335,-0.1393,-0.139,-0.1571,-0.1597,-0.1429,-0.143,-0.1431,0,-0.0737,-0.0796,-0.0794,-0.0834,-0.0901,-0.0892,-0.0959,-0.0969,-0.0992,-0.1037,-0.1017,-0.106,-0.1057,-0.1102,-0.1103,-0.1174,-0.1184,-0.1191,-0.1192,-0.1197,-0.1197,-0.1218,-0.1213,-0.1185,-0.1184,-0.1183,-0.1182,0,-0.0622,-0.0688,-0.0752,-0.0768,-0.0797,-0.0828,-0.0842,-0.0867,-0.0894,-0.0929,-0.0948,-0.0989,-0.1014,-0.1048,-0.105,-0.1015,-0.1134,-0.1087,-0.1143,-0.1144,-0.1174,-0.1174,-0.1327,-0.1181,-0.1181,-0.1181,-0.118,0,-0.0531,-0.0564,-0.0656,-0.068,-0.0698,-0.0741,-0.0781,-0.0818,-0.0846,-0.0849,-0.0877,-0.0866,-0.0924,-0.0877,-0.0959,-0.0913,-0.0939,-0.095,-0.0954,-0.0965,-0.0914,-0.1007,-0.1148,-0.1166,-0.0968,-0.0966,-0.0965,0,-0.0402,-0.0494,-0.0487,-0.0576,-0.0619,-0.0595,-0.0642,-0.0667,-0.0675,-0.0715,-0.0724,-0.077,-0.0735,-0.0751,-0.079,-0.0803,-0.0862,-0.0794,-0.0861,-0.0863,-0.0859,-0.0987,-0.101,-0.1115,-0.0942,-0.0944,-0.0946,0,-0.0303,-0.0334,-0.035,-0.0369,-0.0398,-0.0434,-0.0487,-0.053,-0.0557,-0.0585,-0.0634,-0.0695,-0.0674,-0.0699,-0.0695,-0.0736,-0.0822,-0.0707,-0.0708,-0.0732,-0.0928,-0.0951,-0.0968,-0.0811,-0.0813,-0.0816,-0.0928,0,-0.0175,-0.022,-0.0261,-0.03,-0.0327,-0.0381,-0.0382,-0.0411,-0.0404,-0.0411,-0.0479,-0.0501,-0.0547,-0.0565,-0.0558,-0.0649,-0.0636,-0.0611,-0.0571,-0.0652,-0.069,-0.0705,-0.0514,-0.0513,-0.0512,-0.0511,0,0,-0.0055,-0.0119,-0.0109,-0.0159,-0.0183,-0.0157,-0.0215,-0.0235,-0.0276,-0.0294,-0.0269,-0.0362,-0.0381,-0.0465,-0.049,-0.0506,-0.0525,-0.0496,-0.0612,-0.0623,-0.0633,-0.0673,-0.0689,-0.0509,-0.0509,-0.0509,-0.0508,0,-0.001,-0.0023,-0.0078,-0.0098,-0.0126,-0.013,-0.0143,-0.0167,-0.0175,-0.0239,-0.0221,-0.0262,-0.0334,-0.0359,-0.0381,-0.0484,-0.0471,-0.0497,-0.0554,-0.0601,-0.0614,-0.0625,-0.0667,-0.0681,-0.0506,-0.0506,-0.0506,0,0.0084,0.0068,0.0042,-0.0005,-0.0024,-0.0068,-0.0024,-0.0072,-0.0106,-0.0079,-0.0144,-0.0157,-0.0189,-0.0265,-0.0299,-0.0279,-0.0422,-0.0376,-0.0382,-0.0388,-0.0435,-0.045,-0.0463,-0.0288,-0.0288,-0.0287,0,0,0.0123,0.0083,0.0067,0.0004,-0.0008,-0.0015,-0.0038,-0.0033,-0.006,-0.0071,-0.0088,-0.0117,-0.016,-0.0188,-0.0228,-0.031,-0.032,-0.0349,-0.0359,-0.0367,-0.0378,-0.0427,-0.0441,-0.0284,-0.0284,-0.0284,0,0,0.014,0.012,0.0133,0.0061,0.0036,0.0014,-0.0026,-0.0011,-0.0047,-0.0041,-0.0038,-0.0045,-0.0116,-0.013,-0.009,-0.0215,-0.0173,-0.0183,-0.0204,-0.0217,-0.0227,-0.0225,-0.0052,0,0,0,0,0,0.0186,0.0123,0.0135,0.0123,0.0062,0.0008,-0.0,0.0003,0.0032,0.0,-0.0012,0.0006,-0.0108,-0.0073,-0.0087,-0.0133,-0.0246,-0.0253,-0.0259,-0.0306,-0.0319,-0.0331,0,0,0,0,0,0,0.0181,0.0166,0.0137,0.0112,0.0098,0.001,0.006,0.0059,0.0035,0.004,0.0008,0.0005,0.0005,-0.0066,-0.0078,-0.0122,-0.0048,-0.0249,-0.0255,-0.026,-0.031,-0.0321,-0.0331,0,0,0,0,0,0.0177,0.0165,0.0067,0.0113,0.0101,0.009,0.0062,0.0062,0.0043,0.0025,0.0023,0.0047,0.0004,-0.0006,-0.0073,-0.0117,-0.0039,-0.0044,-0.0253,-0.0257,-0.0261,-0.0316,0,0,0,0,0,0,0.0174,0.0163,0.0065,0.0061,0.0137,0.0095,0.0089,0.0064,0.003,0.0027,0.0065,0.0068,0.0002,-0.0005,-0.0014,-0.0115,-0.0032,-0.0037,-0.004,-0.0256,-0.026,-0.0263,0,0,0,0,0,0,0.017,0.016,0.0063,0.0094,0.0094,0.0099,0.0094,0.0037,0.0029,0.0071,0.0074,0.0067,0.0013,-0.0005,-0.0011,-0.0099,-0.0027,-0.0031,-0.0034,-0.0036,-0.0259,-0.0262,0,0,0,0,0,0,0.0166,0.0157,0.0095,0.0094,0.0095,0.0054,0.0049,-0.0014,0.0058,0.0072,0.0065,0.0067,0.0013,0.0007,-0.001,-0.0096,-0.0098,-0.0027,-0.003,-0.0032,-0.0034,0,0,0,0,0,0,0,0.0162,0.0218,0.0087,0.0095,0.0095,0.0028,0.0027,0.0026,0.0059,0.0061,0.0064,0.0066,-0.0001,-0.0006,-0.0011,-0.0092,0,0,-0.0026,-0.0029,0,0,0,0,0,0,0,0,0.0221,0.0219,0.0087,0.0086,0.0085,0.0028,0.0027,0.0026,0.0059,0.0061,0.0063,0.0065,-0.0002,-0.0006,-0.001,0,0,0,0,0,0,0,0,0,0,0,0,0,0,0,0.0087,0.0086,0,0.0027,0.0027,0.0026,0.006,0.0061,0.0063,0.0064,-0.0004,-0.0007,-0.001,0,0,0,0,0,0,0,0,0,0,0,0,0,0,0,0,0,0,0,0,0,0,0,0,0,0,0,0,0,0,0,0,0,0,0,0,0,0,0,0,0,0,0,0,0,0,0,0,0,0,0,0,0,0,0,0,0,0,0,0,0,0,0,0,0,0,0,0,0]}]]]